Location: Vinland
(47.7731°N, 122.6974°W)
Time: 18:28:30
(UTC+00:00)

Vanguard 1 Rocket - Pass Details

Date: 24 March 2023
Orbit: 654 x 4221 km, 34.3° (Epoch: 29 May)

Event Time Altitude Azimuth Distance (km) Brightness Sun altitude
Rises 07:14:04 0° 232° (SW) 8,328 12.1 -39.0°
Reaches altitude 10° 07:20:45 10° 226° (SW) 7,025 11.7 -39.4°
Enters shadow 07:26:17 19° 219° (SW) 5,903 11.2 -39.6°
